Vorticity
16 17 16 15 16 17 19 20 20 19 19 18 18 15 14 19 17 16 11 8 7 4
17 18 17 16 14 13 12 13 13 13 13 14 14 16 18 17 15 19 19 15 14 12
15 13 13 12 13 13 13 12 12 12 13 13 13 13 12 13 14 15 16 20 19 15
10 11 12 12 13 13 13 14 13 12 12 12 13 14 14 12 12 14 14 15 18 21
11 12 12 12 11 11 12 13 15 16 15 12 11 10 12 13 12 12 12 12 14 15
12 11 10 11 14 14 14 13 11 11 13 17 21 20 13 11 11 12 12 10 13 14
10 10 12 13 12 11 10 8 7 8 10 12 15 18 22 21 14 11 11 10 9 11
11 12 12 11 11 11 9 11 16 17 12 10 11 14 18 20 23 20 13 11 10 8
13 11 12 13 14 17 20 20 19 18 18 17 13 9 12 15 20 25 24 15 12 7
13 14 16 19 18 16 15 15 16 17 20 21 22 18 15 17 17 20 27 22 15 12
16 18 16 15 15 16 17 16 14 13 14 16 19 21 19 14 15 17 22 25 20 17
15 15 17 16 16 16 15 13 11 8 9 11 10 10 15 22 12 15 18 21 20 20
17 17 16 12 11 15 19 17 20 24 26 20 18 14 14 20 18 12 17 19 20 21
16 14 11 11 22 31 26 23 16 10 6 17 27 31 31 22 19 11 14 16 20 21
Height
3041 3034 3028 3024 3019 3013 3010 3007 3004 3002 3001 3000 3000 3001 3002 3002 3003 3006 3010 3014 3018 3022
3028 3022 3016 3011 3005 3000 2995 2991 2987 2985 2983 2983 2981 2980 2980 2981 2983 2984 2987 2991 2995 3000
3013 3008 3003 2997 2992 2988 2982 2977 2973 2970 2967 2965 2964 2964 2963 2962 2963 2965 2968 2970 2973 2977
2998 2994 2988 2983 2979 2973 2967 2964 2959 2954 2950 2948 2947 2947 2946 2945 2944 2945 2947 2952 2954 2957
2985 2979 2973 2968 2963 2958 2952 2948 2942 2938 2934 2931 2929 2927 2927 2928 2927 2926 2929 2932 2936 2939
2974 2966 2960 2953 2947 2941 2935 2931 2927 2922 2919 2916 2912 2909 2908 2908 2909 2909 2910 2914 2917 2922
2962 2954 2947 2939 2933 2927 2921 2915 2910 2905 2901 2898 2894 2892 2890 2889 2889 2890 2893 2895 2899 2904
2950 2942 2934 2926 2919 2912 2905 2899 2894 2888 2883 2880 2876 2874 2872 2870 2870 2871 2873 2878 2881 2886
2939 2930 2921 2913 2904 2896 2889 2883 2876 2871 2865 2862 2859 2858 2855 2853 2851 2851 2854 2859 2865 2870
2927 2917 2907 2898 2889 2881 2874 2866 2860 2855 2851 2845 2842 2841 2839 2838 2836 2834 2835 2840 2847 2852
2914 2903 2894 2884 2876 2868 2861 2853 2847 2841 2837 2831 2827 2826 2823 2823 2821 2819 2819 2823 2829 2835
2903 2891 2882 2872 2864 2856 2846 2840 2834 2828 2822 2817 2812 2812 2809 2807 2806 2804 2805 2809 2813 2818
2894 2884 2873 2862 2852 2843 2834 2826 2820 2814 2809 2803 2796 2796 2794 2793 2792 2791 2793 2797 2800 2805
2888 2876 2866 2855 2844 2830 2822 2816 2811 2804 2796 2787 2780 2776 2776 2777 2778 2779 2782 2786 2790 2795